Location: Eaton Estates
(41.3089°N, 82.0057°W)
Time: 12:46:16
(UTC+00:00)

IGS 5A - Pass Details

Date: 17 June 2021
Orbit: 583 x 587 km, 97.6° (Epoch: 17 July)

Event Time Altitude Azimuth Distance (km) Brightness Sun altitude
Exits shadow 02:01:25 - 163° (SSE) 1,994 5.6 -9.4°
Reaches altitude 10° 02:01:38 10° 162° (SSE) 1,905 5.5 -9.4°
Maximum altitude 02:05:46 79° 77° (ENE) 603 3.4 -10.0°
Drops below altitude 10° 02:09:56 10° 350° (N) 1,921 7.0 -10.6°
Sets 02:12:06 0° 350° (N) 2,827 7.9 -10.9°
